カタログに戻る

KUIPER-00137

運用中通信LEO
NORAD 65963·PAYLOAD·🇺🇸 United States

打ち上げ Oct 14, 2025 から Cape Canaveral Space Force Station

Loading…

次のパス (今後24時間)

TLE

最新Source: CelesTrak SupGP

元期: Sep 14, 2026, 22:27 UTC

1 65963C 25228S   26257.93550926  .00000718  00000+0  94057-4 0  2570
2 65963  51.9020 228.8192 0000859  43.9596 344.7399 14.79924614    15

AllMySatでKUIPER-00137をリアルタイム追跡

Download on the App Store